DW8248 Weather Reports


time (UTC)temp
C
wind
direction
speed
KPH
gust
KPH
rain 1hr
cm
rain 24hr
cm
rain mn
cm
humidity
%
barometer
mb
20260904002700 28 142 8.0 16.1 0.00 0.00 0.00 83 1014.2
20260904001627 28 127 3.2 11.3 0.00 0.00 0.00 84 1014.3
20260904000612 28 138 3.2 11.3 0.00 0.00 0.00 84 1014.3
20260903235617 28 0 4.8 11.3 0.00 0.00 0.00 83 1014.0
20260903234636 28 101 3.2 9.7 0.00 0.00 0.00 83 1013.9
20260903233619 28 167 4.8 11.3 0.00 0.00 0.00 82 1013.8
20260903232639 28 143 6.4 14.5 0.00 0.00 0.00 82 1013.8
20260903231627 28 148 6.4 14.5 0.00 0.00 0.00 82 1013.8
20260903230632 28 110 6.4 17.7 0.00 0.00 0.00 82 1013.8
20260903225558 28 134 6.4 17.7 0.00 0.00 0.00 82 1013.8
20260903224545 28 120 8.0 19.3 0.00 0.00 0.00 82 1013.6
20260903223532 28 148 9.7 19.3 0.00 0.00 0.00 81 1013.6
20260903222511 28 123 8.0 16.1 0.00 0.00 0.00 82 1013.5
20260903221500 29 145 8.0 17.7 0.00 0.00 0.00 81 1013.5
20260903220442 29 136 8.0 17.7 0.00 0.00 0.00 79 1013.4
20260903215432 29 132 9.7 16.1 0.00 0.00 0.00 80 1013.1
20260903214400 29 112 6.4 16.1 0.00 0.00 0.00 80 1013.4
20260903213330 29 123 8.0 19.3 0.00 0.00 0.00 79 1013.5
20260903212322 28 129 9.7 19.3 0.00 0.00 0.00 79 1013.5
20260903211249 28 146 8.0 17.7 0.00 0.00 0.00 81 1013.2
20260903204034 28 78 8.0 20.9 0.00 0.00 0.00 82 1012.5
20260903203007 28 106 11.3 20.9 0.00 0.00 0.00 81 1012.9
20260903201938 28 105 9.7 17.7 0.00 0.00 0.00 81 1013.1
20260903195839 28 105 8.0 19.3 0.00 0.00 0.00 83 1013.2
20260903194839 28 98 6.4 20.9 0.00 0.00 0.00 82 1013.4
20260903193808 28 99 9.7 20.9 0.00 0.00 0.00 82 1013.5
20260903192750 28 0 6.4 17.7 0.00 0.00 0.00 82 1013.6
20260903191753 28 153 6.4 19.3 0.00 0.00 0.00 83 1013.7
20260903190735 28 115 8.0 19.3 0.00 0.00 0.00 82 1013.7
20260903185738 28 53 8.0 17.7 0.00 0.00 0.00 82 1013.7
20260903182514 29 105 9.7 22.5 0.00 0.00 0.00 82 1014.3
20260903181518 29 82 8.0 19.3 0.00 0.00 0.00 82 1014.1
20260903180520 29 115 9.7 20.9 0.00 0.00 0.00 82 1014.2
20260903175504 28 102 11.3 20.9 0.00 0.00 0.00 82 1014.5
20260903174515 28 103 9.7 20.9 0.00 0.00 0.00 83 1014.5
20260903173513 28 86 9.7 17.7 0.00 0.00 0.00 83 1014.5
20260903172456 28 63 9.7 20.9 0.00 0.00 0.00 82 1014.3
20260903171420 28 90 11.3 20.9 0.00 0.00 0.00 82 1014.2
20260903170344 28 105 8.0 16.1 0.00 0.00 0.00 82 1014.5
20260903164230 28 25 6.4 14.5 0.00 0.00 0.00 81 1014.7
20260903163228 28 44 6.4 17.7 0.00 0.00 0.00 81 1014.9
20260903160002 28 94 4.8 12.9 0.00 0.00 0.00 80 1015.4
20260903154955 28 64 4.8 11.3 0.00 0.00 0.00 80 1015.4
20260903154002 28 65 3.2 8.0 0.00 0.00 0.00 80 1015.4
20260903153004 28 48 3.2 8.0 0.00 0.00 0.00 80 1015.4
20260903150859 28 51 3.2 9.7 0.00 0.00 0.00 80 1015.5
20260903145912 28 74 3.2 8.0 0.00 0.00 0.00 80 1015.4
20260903144855 28 40 3.2 8.0 0.00 0.00 0.00 79 1015.4
20260903143847 29 36 1.6 6.4 0.00 0.00 0.00 78 1015.3
20260903142853 28 55 0.0 0.0 0.00 0.00 0.00 75 1015.1
20260903141841 28 55 0.0 0.0 0.00 0.00 0.00 76 1014.9
20260903140831 28 150 0.0 0.0 0.00 0.00 0.00 77 1014.9
20260903135829 28 159 1.6 4.8 0.00 0.00 0.00 78 1014.8
20260903134811 28 201 3.2 6.4 0.00 0.00 0.00 79 1014.7
20260903133738 28 205 1.6 6.4 0.00 0.00 0.00 81 1014.7
20260903132752 27 245 0.0 0.0 0.00 0.00 0.00 84 1014.6
20260903131809 27 241 0.0 0.0 0.00 0.00 0.00 84 1014.7
20260903125710 27 236 3.2 6.4 0.00 0.00 0.00 86 1014.2
20260903124639 27 214 4.8 6.4 0.00 0.00 0.00 86 1014.3
20260903123639 27 194 4.8 6.4 0.00 0.00 0.00 86 1014.5
20260903120330 27 177 6.4 12.9 0.00 0.00 0.00 87 1014.3
20260903115318 27 202 9.7 12.9 0.00 0.00 0.00 87 1014.3
20260903114327 27 213 6.4 11.3 0.00 0.00 0.00 87 1013.9
20260903112217 27 215 1.6 6.4 0.00 0.00 0.00 88 1013.9
20260903111141 27 217 4.8 6.4 0.00 0.00 0.00 88 1013.4
20260903110127 27 232 3.2 8.0 0.00 0.00 0.00 88 1013.3
20260903103958 27 219 6.4 9.7 0.00 0.00 0.00 87 1012.9
20260903102941 27 225 6.4 9.7 0.00 0.00 0.00 87 1013.0
20260903101930 27 223 6.4 9.7 0.00 0.00 0.00 87 1013.0
20260903100854 27 221 6.4 11.3 0.00 0.00 0.00 87 1012.8
20260903095833 27 215 9.7 12.9 0.00 0.00 0.00 87 1012.9
20260903094819 27 214 11.3 19.3 0.00 0.00 0.00 86 1012.8
20260903092614 28 185 4.8 14.5 0.00 0.00 0.00 85 1012.8
20260903091559 28 143 3.2 6.4 0.00 0.00 0.00 84 1012.9
20260903085357 28 118 3.2 8.0 0.00 1.02 0.00 85 1012.5
20260903084401 28 160 3.2 8.0 0.00 1.30 0.00 85 1012.5
20260903083418 28 107 1.6 6.4 0.00 1.30 0.00 84 1012.6
20260903082417 28 120 1.6 8.0 0.00 1.30 0.00 84 1012.5
20260903081353 28 96 1.6 11.3 0.00 1.30 0.00 84 1012.5
20260903073022 28 119 1.6 4.8 0.00 1.30 0.00 82 1012.4
20260903072012 28 107 1.6 6.4 0.00 1.30 0.00 81 1012.5
20260903065846 28 119 3.2 11.3 0.00 1.30 0.00 81 1012.5
20260903064833 28 132 3.2 9.7 0.00 1.30 0.00 81 1012.7
20260903063832 28 132 3.2 12.9 0.00 1.30 0.00 82 1012.9
20260903062818 28 106 4.8 12.9 0.00 1.30 0.00 83 1013.1
20260903061759 28 115 4.8 9.7 0.00 1.30 0.00 84 1013.3
20260903060724 28 144 3.2 9.7 0.00 1.30 0.00 83 1013.4
20260903055657 28 146 1.6 9.7 0.00 1.30 0.00 83 1013.6
20260903054712 28 111 3.2 9.7 0.00 1.30 0.00 83 1013.6
20260903053707 28 138 1.6 11.3 0.00 1.30 0.00 84 1013.8
20260903051523 28 124 3.2 9.7 0.00 1.30 0.00 83 1013.9
20260903050448 28 158 4.8 11.3 0.00 1.30 0.00 82 1014.0
20260903044311 28 140 6.4 12.9 0.00 1.30 0.00 82 1014.2
20260903043240 28 142 4.8 11.3 0.00 1.30 0.00 82 1014.3
20260903041135 28 116 4.8 14.5 0.00 1.30 0.00 82 1014.6
20260903033924 28 93 4.8 11.3 0.00 1.30 1.30 82 1014.7
20260903032858 28 76 3.2 11.3 0.00 1.30 1.30 82 1014.7
20260903030642 28 142 6.4 14.5 0.00 1.30 1.30 81 1014.7
20260903025658 28 118 6.4 14.5 0.00 1.30 1.30 80 1014.7
20260903024701 28 140 4.8 12.9 0.00 1.30 1.30 82 1014.6
20260903023700 28 103 4.8 11.3 0.00 1.30 1.30 82 1014.7
20260903021538 28 88 3.2 11.3 0.00 1.30 1.30 82 1014.7
20260903020557 28 0 3.2 8.0 0.00 1.30 1.30 82 1014.6
20260903015521 28 106 3.2 9.7 0.00 1.30 1.30 82 1014.6
20260903012230 28 107 4.8 12.9 0.00 1.30 1.30 81 1014.3
20260903011238 28 73 3.2 12.9 0.00 1.30 1.30 80 1014.3
20260903010210 28 96 4.8 14.5 0.00 1.30 1.30 80 1014.2
20260903005138 28 77 4.8 14.5 0.00 1.30 1.30 80 1014.0
20260903004138 28 101 6.4 17.7 0.00 1.30 1.30 80 1014.0